| time (UTC) | temp F | wind direction | speed MPH | gust MPH | rain 1hr in | rain 24hr in | rain mn in | humidity % | barometer mb |
| 20260904224601 | 77 | 49 | 0.0 | 0.0 | 0.00 | 0.00 | 0.00 | 71 | 1006.9 |
| 20260904223055 | 78 | 49 | 0.0 | 1.0 | 0.00 | 0.00 | 0.00 | 69 | 1006.9 |
| 20260904221551 | 79 | 49 | 0.0 | 3.0 | 0.00 | 0.00 | 0.00 | 67 | 1006.7 |
| 20260904220109 | 80 | 49 | 0.0 | 2.0 | 0.00 | 0.00 | 0.00 | 63 | 1006.7 |
| 20260904214549 | 80 | 49 | 0.0 | 3.0 | 0.00 | 0.00 | 0.00 | 61 | 1006.5 |
| 20260904213049 | 80 | 11 | 0.0 | 1.0 | 0.00 | 0.00 | 0.00 | 62 | 1006.5 |
| 20260904211555 | 80 | 297 | 0.0 | 0.0 | 0.00 | 0.00 | 0.00 | 60 | 1006.4 |
| 20260904210100 | 80 | 298 | 0.0 | 1.0 | 0.00 | 0.00 | 0.00 | 61 | 1006.5 |
| 20260904204550 | 81 | 299 | 0.0 | 2.0 | 0.00 | 0.00 | 0.00 | 58 | 1006.4 |
| 20260904203047 | 82 | 42 | 0.0 | 4.0 | 0.00 | 0.00 | 0.00 | 55 | 1006.5 |
| 20260904201546 | 83 | 219 | 0.0 | 3.0 | 0.00 | 0.00 | 0.00 | 54 | 1006.6 |
| 20260904200046 | 82 | 318 | 0.0 | 3.0 | 0.00 | 0.00 | 0.00 | 59 | 1006.4 |
| 20260904194553 | 81 | 188 | 0.0 | 3.0 | 0.00 | 0.00 | 0.00 | 60 | 1006.6 |
| 20260904193044 | 82 | 43 | 1.0 | 5.0 | 0.00 | 0.00 | 0.00 | 55 | 1006.5 |
| 20260904191548 | 84 | 51 | 3.0 | 10.0 | 0.00 | 0.00 | 0.00 | 53 | 1006.5 |
| 20260904190042 | 82 | 76 | 0.0 | 2.0 | 0.00 | 0.00 | 0.00 | 59 | 1006.7 |
| 20260904184547 | 83 | 111 | 1.0 | 8.0 | 0.00 | 0.00 | 0.00 | 57 | 1006.6 |
| 20260904183042 | 82 | 32 | 1.0 | 6.0 | 0.00 | 0.00 | 0.00 | 55 | 1006.6 |
| 20260904181549 | 83 | 342 | 1.0 | 8.0 | 0.00 | 0.00 | 0.00 | 54 | 1006.7 |
| 20260904180038 | 83 | 32 | 0.0 | 3.0 | 0.00 | 0.00 | 0.00 | 56 | 1006.9 |
| 20260904174559 | 83 | 62 | 0.0 | 5.0 | 0.00 | 0.00 | 0.00 | 58 | 1006.8 |
| 20260904173037 | 83 | 286 | 3.0 | 9.0 | 0.00 | 0.00 | 0.00 | 57 | 1006.9 |
| 20260904171535 | 82 | 248 | 0.0 | 5.0 | 0.00 | 0.00 | 0.00 | 62 | 1007.1 |
| 20260904170031 | 82 | 327 | 0.0 | 3.0 | 0.00 | 0.00 | 0.00 | 65 | 1007.2 |
| 20260904164528 | 81 | 53 | 3.0 | 9.0 | 0.00 | 0.00 | 0.00 | 64 | 1007.3 |
| 20260904163027 | 80 | 249 | 0.0 | 6.0 | 0.00 | 0.00 | 0.00 | 65 | 1007.4 |
| 20260904161525 | 81 | 55 | 1.0 | 6.0 | 0.00 | 0.00 | 0.00 | 69 | 1007.6 |
| 20260904160024 | 80 | 279 | 1.0 | 5.0 | 0.00 | 0.00 | 0.00 | 65 | 1007.7 |
| 20260904154519 | 79 | 30 | 1.0 | 7.0 | 0.00 | 0.00 | 0.00 | 69 | 1007.8 |
| 20260904153023 | 78 | 266 | 1.0 | 4.0 | 0.00 | 0.00 | 0.00 | 71 | 1007.9 |
| 20260904151513 | 78 | 61 | 0.0 | 5.0 | 0.00 | 0.00 | 0.00 | 75 | 1007.9 |
| 20260904150011 | 77 | 65 | 2.0 | 5.0 | 0.00 | 0.00 | 0.00 | 73 | 1008.1 |
| 20260904144505 | 76 | 31 | 1.0 | 3.0 | 0.00 | 0.00 | 0.00 | 81 | 1008.1 |
| 20260904143001 | 74 | 49 | 0.0 | 6.0 | 0.00 | 0.00 | 0.00 | 87 | 1008.2 |
| 20260904141558 | 70 | 281 | 0.0 | 4.0 | 0.00 | 0.00 | 0.00 | 94 | 1008.3 |
| 20260904140054 | 69 | 27 | 0.0 | 1.0 | 0.00 | 0.00 | 0.00 | 95 | 1008.4 |
| 20260904134550 | 68 | 349 | 0.0 | 2.0 | 0.00 | 0.00 | 0.00 | 95 | 1008.6 |
| 20260904133055 | 68 | 66 | 0.0 | 3.0 | 0.00 | 0.00 | 0.00 | 95 | 1008.6 |
| 20260904131545 | 67 | 52 | 1.0 | 2.0 | 0.00 | 0.00 | 0.00 | 95 | 1008.6 |
| 20260904130043 | 67 | 58 | 0.0 | 2.0 | 0.00 | 0.00 | 0.00 | 95 | 1008.7 |
| 20260904124545 | 67 | 55 | 0.0 | 2.0 | 0.00 | 0.03 | 0.00 | 95 | 1008.7 |
| 20260904123103 | 67 | 55 | 0.0 | 1.0 | 0.00 | 0.03 | 0.00 | 95 | 1008.8 |
| 20260904121539 | 67 | 54 | 1.0 | 4.0 | 0.00 | 0.03 | 0.00 | 95 | 1008.7 |
| 20260904120039 | 66 | 111 | 0.0 | 1.0 | 0.00 | 0.03 | 0.00 | 95 | 1008.7 |
| 20260904114537 | 66 | 111 | 0.0 | 2.0 | 0.00 | 0.06 | 0.00 | 95 | 1008.7 |
| 20260904113047 | 66 | 138 | 0.0 | 0.0 | 0.00 | 0.06 | 0.00 | 94 | 1008.6 |
| 20260904111534 | 66 | 138 | 0.0 | 0.0 | 0.00 | 0.06 | 0.00 | 94 | 1008.5 |
| 20260904110038 | 66 | 138 | 0.0 | 0.0 | 0.00 | 0.06 | 0.00 | 94 | 1008.6 |
| 20260904104529 | 66 | 138 | 0.0 | 0.0 | 0.00 | 0.08 | 0.00 | 94 | 1008.5 |
| 20260904103027 | 66 | 138 | 0.0 | 0.0 | 0.00 | 0.08 | 0.00 | 94 | 1008.3 |
| 20260904101527 | 66 | 138 | 0.0 | 0.0 | 0.00 | 0.08 | 0.00 | 94 | 1008.3 |
| 20260904100025 | 66 | 138 | 0.0 | 0.0 | 0.00 | 0.08 | 0.00 | 94 | 1008.2 |
| 20260904094524 | 66 | 138 | 0.0 | 0.0 | 0.00 | 0.10 | 0.00 | 94 | 1008.3 |
| 20260904093025 | 66 | 138 | 0.0 | 0.0 | 0.00 | 0.10 | 0.00 | 94 | 1008.4 |
| 20260904091524 | 66 | 138 | 0.0 | 0.0 | 0.00 | 0.10 | 0.00 | 94 | 1008.1 |
| 20260904090023 | 66 | 138 | 0.0 | 0.0 | 0.00 | 0.10 | 0.00 | 94 | 1008.1 |
| 20260904084523 | 66 | 138 | 0.0 | 0.0 | 0.00 | 0.13 | 0.00 | 94 | 1008.2 |
| 20260904083024 | 66 | 138 | 0.0 | 0.0 | 0.00 | 0.13 | 0.00 | 94 | 1008.2 |
| 20260904081520 | 66 | 138 | 0.0 | 0.0 | 0.00 | 0.13 | 0.00 | 94 | 1008.3 |
| 20260904080018 | 66 | 138 | 0.0 | 0.0 | 0.00 | 0.13 | 0.00 | 94 | 1008.3 |
| 20260904074517 | 66 | 138 | 0.0 | 0.0 | 0.00 | 0.13 | 0.00 | 94 | 1008.5 |
| 20260904073016 | 66 | 138 | 0.0 | 2.0 | 0.00 | 0.13 | 0.00 | 94 | 1008.7 |
| 20260904071515 | 65 | 121 | 0.0 | 3.0 | 0.00 | 0.13 | 0.00 | 94 | 1008.7 |
| 20260904070027 | 65 | 101 | 0.0 | 0.0 | 0.00 | 0.13 | 0.00 | 94 | 1008.9 |
| 20260904064508 | 64 | 101 | 0.0 | 0.0 | 0.00 | 0.13 | 0.00 | 94 | 1008.8 |
| 20260904063012 | 64 | 101 | 0.0 | 0.0 | 0.00 | 0.13 | 0.00 | 94 | 1008.8 |
| 20260904061505 | 64 | 101 | 0.0 | 0.0 | 0.00 | 0.13 | 0.00 | 93 | 1009.0 |
| 20260904060004 | 64 | 101 | 0.0 | 0.0 | 0.00 | 0.13 | 0.00 | 93 | 1009.2 |
| 20260904054502 | 63 | 101 | 0.0 | 0.0 | 0.00 | 0.13 | 0.00 | 93 | 1009.5 |
| 20260904053100 | 63 | 101 | 0.0 | 0.0 | 0.00 | 0.13 | 0.00 | 93 | 1009.5 |
| 20260904051558 | 63 | 101 | 0.0 | 0.0 | 0.00 | 0.13 | 0.00 | 92 | 1009.7 |
| 20260904050056 | 63 | 101 | 0.0 | 0.0 | 0.00 | 0.13 | 0.00 | 92 | 1009.9 |
| 20260904044559 | 64 | 101 | 0.0 | 0.0 | 0.00 | 0.13 | 0.00 | 92 | 1009.9 |
| 20260904043057 | 64 | 101 | 0.0 | 0.0 | 0.00 | 0.13 | 0.00 | 92 | 1010.0 |
| 20260904041555 | 64 | 101 | 0.0 | 0.0 | 0.00 | 0.13 | 0.00 | 92 | 1010.0 |
| 20260904040050 | 64 | 101 | 0.0 | 0.0 | 0.00 | 0.13 | 0.00 | 92 | 1010.0 |
| 20260904034556 | 64 | 101 | 0.0 | 0.0 | 0.00 | 0.13 | 0.13 | 92 | 1010.2 |
| 20260904033050 | 65 | 101 | 0.0 | 0.0 | 0.00 | 0.13 | 0.13 | 91 | 1010.2 |
| 20260904031549 | 65 | 101 | 0.0 | 0.0 | 0.00 | 0.13 | 0.13 | 91 | 1010.2 |
| 20260904030049 | 65 | 101 | 0.0 | 0.0 | 0.00 | 0.13 | 0.13 | 91 | 1010.2 |
| 20260904024547 | 66 | 101 | 0.0 | 0.0 | 0.00 | 0.13 | 0.13 | 91 | 1010.5 |
| 20260904023054 | 66 | 101 | 0.0 | 0.0 | 0.00 | 0.13 | 0.13 | 91 | 1010.7 |
| 20260904021547 | 66 | 101 | 0.0 | 0.0 | 0.00 | 0.13 | 0.13 | 91 | 1010.9 |
| 20260904020048 | 66 | 101 | 0.0 | 0.0 | 0.00 | 0.13 | 0.13 | 90 | 1010.8 |
| 20260904014547 | 66 | 101 | 0.0 | 2.0 | 0.00 | 0.13 | 0.13 | 90 | 1010.8 |
| 20260904013045 | 67 | 69 | 0.0 | 0.0 | 0.00 | 0.13 | 0.13 | 89 | 1011.1 |
| 20260904011600 | 67 | 69 | 0.0 | 0.0 | 0.00 | 0.13 | 0.13 | 89 | 1011.2 |
| 20260904010044 | 67 | 69 | 0.0 | 0.0 | 0.00 | 0.13 | 0.13 | 88 | 1011.0 |
| 20260904004543 | 68 | 69 | 0.0 | 0.0 | 0.00 | 0.13 | 0.13 | 88 | 1010.7 |
| 20260904003043 | 68 | 69 | 0.0 | 0.0 | 0.00 | 0.13 | 0.13 | 88 | 1010.5 |
| 20260904001544 | 69 | 69 | 0.0 | 0.0 | 0.00 | 0.13 | 0.13 | 87 | 1010.5 |
| 20260904000050 | 69 | 69 | 0.0 | 0.0 | 0.00 | 0.13 | 0.13 | 86 | 1010.5 |
| 20260903234545 | 70 | 69 | 0.0 | 0.0 | 0.00 | 0.13 | 0.13 | 85 | 1010.3 |
| 20260903233041 | 71 | 69 | 0.0 | 0.0 | 0.00 | 0.13 | 0.13 | 85 | 1010.3 |
| 20260903231544 | 71 | 69 | 0.0 | 1.0 | 0.00 | 0.13 | 0.13 | 85 | 1010.1 |
| 20260903230045 | 72 | 75 | 0.0 | 3.0 | 0.00 | 0.13 | 0.13 | 85 | 1010.1 |